Regional Weather Roundup
Issued by NWS Cleveland, OH

Home | Current Version | Previous Version | Graphics & Text | Print | Product List | Glossary On
Versions: 1 2 3 4 5 6 7 8 9 10 11 12 13 14 15 16 17 18 19 20 21 22 23 24 25 26 27 28 29 30 31 32 33 34 35 36 37 38 39 40 41 42 43 44 45 46 47 48 49 50
000
ASUS41 KCLE 210510
RWRCLE
OHIO REGIONAL WEATHER ROUNDUP
NATIONAL WEATHER SERVICE CLEVELAND, OH
100 AM EDT SAT OCT 21 2017

NOTE: "FAIR" INDICATES FEW OR NO CLOUDS BELOW 12,000 FEET WITH NO
SIGNIFICANT WEATHER AND/OR OBSTRUCTIONS TO VISIBILITY.

OHZ001>008-015>018-024>027-034-035-043-044-210600-
   NORTHWEST OHIO

CITY           SKY/WX    TMP DP  RH WIND       PRES   REMARKS
DEFIANCE       CLEAR     55  49  80 S3        30.16S
FINDLAY        CLEAR     56  44  64 SE6       30.17F
TOLEDO EXPRESS CLEAR     59  50  72 S7        30.16S
TOLEDO EXEC    CLEAR     57  45  64 S8        30.18S
LIMA           CLEAR     55  50  83 S6        30.18S
$$

OHZ009>014-019>023-028>033-038-089-210600-
   NORTHEAST OHIO

CITY           SKY/WX    TMP DP  RH WIND       PRES   REMARKS
CLE-HOPKINS    CLEAR     53  41  63 S6        30.22S
CLE-LAKEFRONT  CLEAR     59  40  49 SE9       30.19R
CUY CO. ARPT   NOT AVBL
LORAIN-ELYRIA  CLEAR     49  38  65 S5        30.21S
ASHTABULA      CLEAR     52  39  61 S7        30.24R
AKRON-CANTON   CLEAR     52  40  63 S8        30.23S
WOOSTER        CLEAR     40  39  97 CALM      30.24R
MANSFIELD      CLEAR     55  40  56 S9        30.22S
YOUNGSTOWN     CLEAR     56  37  49 S6        30.24S
$$

OHZ042-051>053-060>062-070>072-077>081-210600-
  SOUTHWEST OHIO

CITY           SKY/WX    TMP DP  RH WIND       PRES   REMARKS
CINC-COVINGTON MOCLDY    56  54  93 CALM      30.20R
CINC-LUNKEN    FOG       51  51 100 CALM      30.21S VSB 1/2
HAMILTON       CLEAR     48  47  96 CALM      30.21R FOG
DAYTON         CLOUDY    56  54  93 SE8       30.20S
WRIGHT-PAT AFB NOT AVBL
DAYTON GENERAL CLOUDY    57  50  77 S5        30.20S
WILMINGTON     CLOUDY    55  52  89 S5        30.21F
$$

OHZ036-037-039>041-045>050-054>059-063>069-073>076-082>088-210600-
  CENTRAL AND SOUTHEAST OHIO

CITY           SKY/WX    TMP DP  RH WIND       PRES   REMARKS
COLUMBUS       PTCLDY    55  44  66 CALM      30.21S
OSU AIRPORT    CLEAR     56  44  64 CALM      30.21S
BOLTON FIELD   CLEAR     50  44  78 S5        30.22S
RICKENBACK AFB CLEAR     51  44  77 CALM      30.21S
NEWARK         CLEAR     45  42  89 CALM      30.22F
MARION         CLEAR     52  39  61 S8        30.21S
LANCASTER      CLEAR     44  42  93 S3        30.23S
ZANESVILLE     CLEAR     47  42  83 CALM      30.23F
NEW PHILLY     NOT AVBL
$$




USA.gov is the U.S. government's official web portal to all federal, state and local government web resources and services.